Location: Neuvy Saint Sepulchre
(46.5953°N, 1.8122°E)
Time: 05:46:36
(UTC+01:00)

ISS - Pass Details

Date: 25 November 2023
Orbit: 416 x 417 km, 51.6° (Epoch: 01 December)

Event Time Altitude Azimuth Distance (km) Brightness Sun altitude
Rises 18:12:56 0° 271° (W) 2,357 1.6 -10.5°
Reaches altitude 10° 18:15:07 10° 279° (W) 1,495 0.1 -10.9°
Maximum altitude 18:18:16 37° 349° (N) 663 -2.8 -11.4°
Enters shadow 18:20:23 18° 51° (NE) 1,113 -2.2 -11.8°
